| DS18B20 | SHTC3 | ||||||
|---|---|---|---|---|---|---|---|
| ID | Date d/m/Y & Time | data1 สูง | data2 ต่ำ | data3 นอก | temp pcb | hum pcb | Time |
| 10558 | 10/04/2026 13:29:45 | 32.6  | 31.2  | 33.5  | 32.1  | 65.1  | 13:29 |
| 10557 | 10/04/2026 13:25:03 | 32.6  | 31.2  | 33.5  | 32.0  | 65.1  | 13:25 |
| 10556 | 10/04/2026 13:20:22 | 32.6  | 31.2  | 33.7  | 32.1  | 65.2  | 13:20 |
| 10555 | 10/04/2026 13:15:39 | 32.6  | 31.2  | 33.4  | 31.8  | 65.1  | 13:15 |
| 10554 | 10/04/2026 13:10:57 | 32.5  | 31.1  | 33.5  | 32.1  | 65.2  | 13:10 |
| 10553 | 10/04/2026 13:06:13 | 32.5  | 31.1  | 33.5  | 32.0  | 65.2  | 13:06 |
| 10552 | 10/04/2026 13:01:30 | 32.4  | 31.1  | 33.4  | 31.8  | 65.2  | 13:01 |
| 10551 | 10/04/2026 12:56:49 | 32.4  | 31.0  | 33.6  | 32.0  | 65.2  | 12:56 |
| 10550 | 10/04/2026 12:52:07 | 32.4  | 31.0  | 33.5  | 31.8  | 65.0  | 12:52 |
| 10549 | 10/04/2026 12:47:25 | 32.4  | 30.9  | 33.7  | 31.8  | 65.1  | 12:47 |
| 10548 | 10/04/2026 12:42:42 | 32.3  | 30.9  | 33.8  | 31.8  | 65.1  | 12:42 |
| 10547 | 10/04/2026 12:38:00 | 32.3  | 30.9  | 33.6  | 31.8  | 65.1  | 12:38 |
| 10546 | 10/04/2026 12:33:18 | 32.2  | 30.8  | 33.5  | 31.7  | 65.4  | 12:33 |
| 10545 | 10/04/2026 12:28:37 | 32.2  | 30.8  | 33.4  | 31.6  | 65.5  | 12:28 |
| 10544 | 10/04/2026 12:23:53 | 32.1  | 30.7  | 33.4  | 31.5  | 64.7  | 12:23 |
| 10543 | 10/04/2026 12:19:11 | 32.1  | 30.6  | 33.3  | 31.5  | 64.7  | 12:19 |
| 10542 | 10/04/2026 12:14:29 | 32.0  | 30.6  | 33.4  | 31.4  | 64.6  | 12:14 |
| 10541 | 10/04/2026 12:09:47 | 31.9  | 30.5  | 33.5  | 31.4  | 64.7  | 12:09 |
| 10540 | 10/04/2026 12:05:03 | 31.9  | 30.5  | 33.4  | 31.3  | 64.7  | 12:05 |
| 10539 | 10/04/2026 12:00:22 | 31.8  | 30.4  | 33.4  | 31.4  | 64.8  | 12:00 |
| 10538 | 10/04/2026 11:55:39 | 31.8  | 30.4  | 33.2  | 31.1  | 64.6  | 11:55 |
| 10537 | 10/04/2026 11:50:57 | 31.7  | 30.3  | 33.2  | 31.1  | 64.6  | 11:50 |
| 10536 | 10/04/2026 11:46:15 | 31.6  | 30.2  | 33.2  | 31.0  | 64.6  | 11:46 |
| 10535 | 10/04/2026 11:41:31 | 31.6  | 30.2  | 33.1  | 31.1  | 64.6  | 11:41 |